Short Creek, WV

3:11 AM EST on February 27, 2017 (GMT -0500)
Wheeling-Ohio County

Weather History for KHLG - October, 2011

Change the Weather History Date:

Thursday, October 20, 2011

  Actual Average Record
Temperature  
Mean Temperature 45 °F 52 °F  
Max Temperature 47 °F 61 °F 80 °F (2016)
Min Temperature 42 °F 43 °F 25 °F (1952)
Degree Days  
Heating Degree Days 20 13  
Month to date heating degree days 68 207  
Since 1 July heating degree days 68 308  
Cooling Degree Days 0    
Month to date cooling degree days 0  
Year to date cooling degree days 0  
Moisture  
Dew Point 39 °F    
Average Humidity 83    
Maximum Humidity 89    
Minimum Humidity 76    
Precipitation  
Precipitation 0.11 in 0.09 in 0.74 in (2016)
Month to date precipitation 0.95 1.68  
Sea Level Pressure  
Sea Level Pressure 29.49 in    
Wind  
Wind Speed 18 mph (SW)    
Max Wind Speed 28 mph    
Max Gust Speed 41 mph    
Visibility 9 miles    
Events Rain    
T = Trace of Precipitation, MM = Missing Value Source: NWS Daily Summary

Daily Weather History Graph

Daily Weather History Graph

Search for Another Location

Airport or City:

Trip Planner

Search our weather history database for the weather conditions in past years. The results will help you decide how hot, cold, wet, or windy it might be!

Date:

Astronomy

Oct. 20, 2011 Rise Set
Actual Time 7:38 AM EDT 6:35 PM EDT
Civil Twilight 7:10 AM EDT 7:03 PM EDT
Nautical Twilight 6:39 AM EDT 7:35 PM EDT
Astronomical Twilight 6:07 AM EDT 8:06 PM EDT
Moon 12:21 AM EDT (10/20) 2:44 PM EDT (10/20)
Length of Visible Light 11h 52m
Length of Day
10h 57m
Last Quarter, 44% of the Moon is Illuminated
Oct 20
Last Quarter
Oct 26
New
Nov 2
First Quarter
Nov 10
Full
Nov 18
Last Quarter

Hourly Weather History & Observations

Time (EDT) Temp. Windchill Dew Point Humidity Pressure Visibility Wind Dir Wind Speed Gust Speed Precip Events Conditions
12:53 AM 46.9 °F - 43.0 °F 86% 29.30 in 10.0 mi SSW 16.1 mph 26.5 mph 0.00 in   Overcast
1:53 AM 46.9 °F - 42.1 °F 83% 29.29 in 10.0 mi SSW 18.4 mph 27.6 mph N/A   Overcast
2:53 AM 46.9 °F - 42.1 °F 83% 29.30 in 10.0 mi SSW 13.8 mph 26.5 mph N/A   Overcast
3:50 AM 46.4 °F 38.7 °F 41.0 °F 81% 29.29 in 10.0 mi South 20.7 mph 25.3 mph N/A   Overcast
3:53 AM 46.9 °F - 41.0 °F 80% 29.30 in 10.0 mi South 16.1 mph 25.3 mph N/A   Overcast
4:53 AM 46.0 °F 39.9 °F 41.0 °F 83% 29.30 in 9.0 mi SSW 13.8 mph 24.2 mph N/A   Overcast
7:53 AM 44.1 °F 35.7 °F 37.9 °F 79% 29.34 in 10.0 mi SSW 20.7 mph 27.6 mph N/A   Overcast
8:53 AM 43.0 °F 35.4 °F 37.9 °F 82% 29.36 in 10.0 mi SSW 16.1 mph 32.2 mph 0.00 in   Overcast
9:19 AM 42.8 °F 34.3 °F 37.4 °F 81% 29.36 in 5.0 mi SSW 19.6 mph 28.8 mph 0.01 in   Haze
9:53 AM 43.0 °F 35.1 °F 39.0 °F 86% 29.38 in 9.0 mi SSW 17.3 mph 27.6 mph 0.01 in   Overcast
10:53 AM 43.0 °F 35.1 °F 39.0 °F 86% 29.40 in 10.0 mi SSW 17.3 mph 27.6 mph 0.02 in Rain Light Rain
12:53 PM 43.0 °F 34.0 °F 37.9 °F 82% 29.42 in 10.0 mi SSW 21.9 mph 29.9 mph 0.01 in   Overcast
1:04 PM 42.8 °F 34.0 °F 37.4 °F 81% 29.40 in 10.0 mi SSW 20.7 mph 34.5 mph N/A   Overcast
1:53 PM 43.0 °F 34.0 °F 37.0 °F 80% 29.43 in 10.0 mi SSW 21.9 mph 34.5 mph N/A   Overcast
2:53 PM 43.0 °F 35.1 °F 37.0 °F 80% 29.46 in 10.0 mi SW 17.3 mph 33.4 mph N/A   Overcast
3:53 PM 43.0 °F 34.0 °F 37.0 °F 80% 29.50 in 10.0 mi SSW 21.9 mph 38.0 mph 0.00 in   Overcast
4:53 PM 43.0 °F 34.5 °F 37.9 °F 82% 29.54 in 10.0 mi SW 19.6 mph 29.9 mph 0.00 in Rain Light Rain
5:53 PM 43.0 °F 34.0 °F 37.9 °F 82% 29.58 in 10.0 mi SW 21.9 mph 31.1 mph 0.02 in Rain Light Rain
6:53 PM 43.0 °F 34.5 °F 37.9 °F 82% 29.62 in 10.0 mi SW 19.6 mph 28.8 mph 0.00 in Rain Light Rain
8:15 PM 42.8 °F 34.5 °F 39.2 °F 87% 29.65 in 6.0 mi SW 18.4 mph 32.2 mph 0.00 in Rain Light Rain
8:53 PM 43.0 °F 34.2 °F 39.0 °F 86% 29.70 in 6.0 mi SW 20.7 mph 33.4 mph 0.01 in Rain Light Rain
9:16 PM 42.8 °F 34.0 °F 39.2 °F 87% 29.68 in 10.0 mi WSW 20.7 mph 29.9 mph 0.01 in   Overcast
9:53 PM 44.1 °F 36.2 °F 39.0 °F 82% 29.73 in 10.0 mi SW 18.4 mph 28.8 mph 0.01 in   Overcast
10:42 PM 44.6 °F 37.4 °F 37.4 °F 76% 29.72 in 10.0 mi WSW 16.1 mph 31.1 mph N/A   Overcast
10:53 PM 44.1 °F 36.5 °F 39.0 °F 82% 29.75 in 10.0 mi WSW 17.3 mph 27.6 mph N/A   Overcast
11:23 PM 42.8 °F 34.3 °F 39.2 °F 87% 29.75 in 8.0 mi SW 19.6 mph 25.3 mph 0.00 in Rain Light Rain
11:53 PM 43.0 °F 35.4 °F 39.0 °F 86% 29.79 in 8.0 mi WSW 16.1 mph 24.2 mph 0.00 in Rain Light Rain